(°C)
16°
15°
14°
13°
12°
12°
11°
(°C)
15°
14°
13°
12°
12°
11°
11°
Z
ZSZ
SSZ
S
V
SV
VSV
(km/h)
6-10
4-10
4-9
2-8
2-6
2-6
3-5
(mm)
0
0
0
0
0
0
0
(%)
2
3
3
3
1
0
0

Sluneční výška

/ -3.4°
sun-icon
UV 3
07:49
18:54
Dorůstající měsíc (167°)
18:37
06:23

METAR pro Ioánnina (LGIO)

Čas Podmínky Teplota/
Rosný bod
Vítr Viditelnost Počasí Oblaky Tlak Změna Nezpracované
17°C / 11°C 320º variable 250º to 340º 4kt - 1026 - LGIO 191550Z AUTO 32004KT 250V340 //// // ////// 17/11 Q1026 RE//
18°C / 11°C 280º variable 250º to 320º 5kt - 1026 - LGIO 191520Z AUTO 28005KT 250V320 //// // ////// 18/11 Q1026 RE//
20°C / 11°C 290º variable 220º to 320º 4kt - 1025 - LGIO 191450Z AUTO 29004KT 220V320 //// // ////// 20/11 Q1025 RE//
20°C / 10°C 290º variable 250º to 320º 5kt - 1025 - LGIO 191420Z AUTO 29005KT 250V320 //// // ////// 20/10 Q1025 RE//
20°C / 9°C 300º variable 220º to 320º 5kt - 1025 - LGIO 191350Z AUTO 30005KT 220V320 //// // ////// 20/09 Q1025 RE//
21°C / 9°C variable 3kt - 1025 - LGIO 191320Z AUTO VRB03KT //// // ////// 21/09 Q1025 RE//
21°C / 10°C variable 2kt - 1026 - LGIO 191250Z AUTO VRB02KT //// // ////// 21/10 Q1026 RE//
19°C / 12°C 100º 4kt - 1026 - LGIO 191220Z AUTO 10004KT //// // ////// 19/12 Q1026 RE//
VFR 19°C / 12°C 120º 4kt >10km - Few Clouds 2500ft 1026 - LGIO 191150Z 12004KT 9999 FEW025 19/12 Q1026
VFR 18°C / 12°C 110º 2kt >10km - Few Clouds 2500ft 1026 - LGIO 191120Z 11002KT 9999 FEW025 18/12 Q1026
VFR 17°C / 12°C 110º 3kt >10km - Few Clouds 2500ft 1027 - LGIO 191050Z 11003KT 9999 FEW025 17/12 Q1027
VFR 16°C / 12°C 100º 4kt >10km - Few Clouds 2500ft 1027 - LGIO 191020Z 10004KT 9999 FEW025 16/12 Q1027
VFR 16°C / 11°C 200º 2kt >10km - Few Clouds 3000ft 1028 - LGIO 190950Z 20002KT 9999 FEW030 16/11 Q1028
VFR 14°C / 11°C 320º 2kt >10km - Few Clouds 800ft 1028 - LGIO 190920Z 32002KT 9999 FEW008 14/11 Q1028
MVFR 13°C / 11°C 340º 3kt 8000m - Few Clouds 500ft 1028 - LGIO 190850Z 34003KT 8000 FEW005 13/11 Q1028
IFR 12°C / 10°C 310º 2kt 5000m Mist Vertical Visibility of 0ft. 1028 - LGIO 190820Z 31002KT 5000 BR BKN005 12/10 Q1028
IFR 12°C / 10°C 20º 1kt 5000m Mist Vertical Visibility of 0ft. 1028 - LGIO 190750Z 02001KT 5000 BR OVC005 12/10 Q1028
IFR 11°C / 10°C 70º 2kt 4500m Mist Vertical Visibility of 0ft. 1028 - LGIO 190720Z 07002KT 4500 BR OVC005 11/10 Q1028
IFR 10°C / 10°C variable 0kt 3500m Mist Vertical Visibility of 0ft. 1027 - LGIO 190650Z 00000KT 3500 BR OVC005 10/10 Q1027
IFR 10°C / 10°C 340º 2kt 3500m Mist Vertical Visibility of 0ft. 1027 - LGIO 190620Z 34002KT 3500 BR OVC005 10/10 Q1027
10°C / 10°C variable 2kt - 1026 - LGIO 190550Z AUTO VRB02KT //// // ////// 10/10 Q1026 RE//
10°C / 10°C variable 2kt - 1026 - LGIO 190520Z AUTO VRB02KT //// // ////// 10/10 Q1026 RE//
10°C / 10°C variable 3kt - 1026 - LGIO 190450Z AUTO VRB03KT //// // ////// 10/10 Q1026 RE//
10°C / 10°C variable 3kt - 1026 - LGIO 190420Z AUTO VRB03KT //// // ////// 10/10 Q1026 RE//

17°C / 11°C

[Víc]
Vítr 320º variable 250º to 340º 4kt
Viditelnost
Počasí -
Oblaky
Tlak 1026
Změna -
Nezpracované LGIO 191550Z AUTO 32004KT 250V340 //// // ////// 17/11 Q1026 RE//

18°C / 11°C

[Víc]
Vítr 280º variable 250º to 320º 5kt
Viditelnost
Počasí -
Oblaky
Tlak 1026
Změna -
Nezpracované LGIO 191520Z AUTO 28005KT 250V320 //// // ////// 18/11 Q1026 RE//

20°C / 11°C

[Víc]
Vítr 290º variable 220º to 320º 4kt
Viditelnost
Počasí -
Oblaky
Tlak 1025
Změna -
Nezpracované LGIO 191450Z AUTO 29004KT 220V320 //// // ////// 20/11 Q1025 RE//

20°C / 10°C

[Víc]
Vítr 290º variable 250º to 320º 5kt
Viditelnost
Počasí -
Oblaky
Tlak 1025
Změna -
Nezpracované LGIO 191420Z AUTO 29005KT 250V320 //// // ////// 20/10 Q1025 RE//

20°C / 9°C

[Víc]
Vítr 300º variable 220º to 320º 5kt
Viditelnost
Počasí -
Oblaky
Tlak 1025
Změna -
Nezpracované LGIO 191350Z AUTO 30005KT 220V320 //// // ////// 20/09 Q1025 RE//

21°C / 9°C

[Víc]
Vítr variable 3kt
Viditelnost
Počasí -
Oblaky
Tlak 1025
Změna -
Nezpracované LGIO 191320Z AUTO VRB03KT //// // ////// 21/09 Q1025 RE//

21°C / 10°C

[Víc]
Vítr variable 2kt
Viditelnost
Počasí -
Oblaky
Tlak 1026
Změna -
Nezpracované LGIO 191250Z AUTO VRB02KT //// // ////// 21/10 Q1026 RE//

19°C / 12°C

[Víc]
Vítr 100º 4kt
Viditelnost
Počasí -
Oblaky
Tlak 1026
Změna -
Nezpracované LGIO 191220Z AUTO 10004KT //// // ////// 19/12 Q1026 RE//

VFR

19°C / 12°C

[Víc]
Vítr 120º 4kt
Viditelnost >10km
Počasí -
Oblaky Few Clouds 2500ft
Tlak 1026
Změna -
Nezpracované LGIO 191150Z 12004KT 9999 FEW025 19/12 Q1026

VFR

18°C / 12°C

[Víc]
Vítr 110º 2kt
Viditelnost >10km
Počasí -
Oblaky Few Clouds 2500ft
Tlak 1026
Změna -
Nezpracované LGIO 191120Z 11002KT 9999 FEW025 18/12 Q1026

VFR

17°C / 12°C

[Víc]
Vítr 110º 3kt
Viditelnost >10km
Počasí -
Oblaky Few Clouds 2500ft
Tlak 1027
Změna -
Nezpracované LGIO 191050Z 11003KT 9999 FEW025 17/12 Q1027

VFR

16°C / 12°C

[Víc]
Vítr 100º 4kt
Viditelnost >10km
Počasí -
Oblaky Few Clouds 2500ft
Tlak 1027
Změna -
Nezpracované LGIO 191020Z 10004KT 9999 FEW025 16/12 Q1027

VFR

16°C / 11°C

[Víc]
Vítr 200º 2kt
Viditelnost >10km
Počasí -
Oblaky Few Clouds 3000ft
Tlak 1028
Změna -
Nezpracované LGIO 190950Z 20002KT 9999 FEW030 16/11 Q1028

VFR

14°C / 11°C

[Víc]
Vítr 320º 2kt
Viditelnost >10km
Počasí -
Oblaky Few Clouds 800ft
Tlak 1028
Změna -
Nezpracované LGIO 190920Z 32002KT 9999 FEW008 14/11 Q1028

MVFR

13°C / 11°C

[Víc]
Vítr 340º 3kt
Viditelnost 8000m
Počasí -
Oblaky Few Clouds 500ft
Tlak 1028
Změna -
Nezpracované LGIO 190850Z 34003KT 8000 FEW005 13/11 Q1028

IFR

12°C / 10°C

[Víc]
Vítr 310º 2kt
Viditelnost 5000m
Počasí Mist
Oblaky Vertical Visibility of 0ft.
Tlak 1028
Změna -
Nezpracované LGIO 190820Z 31002KT 5000 BR BKN005 12/10 Q1028

IFR

12°C / 10°C

[Víc]
Vítr 20º 1kt
Viditelnost 5000m
Počasí Mist
Oblaky Vertical Visibility of 0ft.
Tlak 1028
Změna -
Nezpracované LGIO 190750Z 02001KT 5000 BR OVC005 12/10 Q1028

IFR

11°C / 10°C

[Víc]
Vítr 70º 2kt
Viditelnost 4500m
Počasí Mist
Oblaky Vertical Visibility of 0ft.
Tlak 1028
Změna -
Nezpracované LGIO 190720Z 07002KT 4500 BR OVC005 11/10 Q1028

IFR

10°C / 10°C

[Víc]
Vítr variable 0kt
Viditelnost 3500m
Počasí Mist
Oblaky Vertical Visibility of 0ft.
Tlak 1027
Změna -
Nezpracované LGIO 190650Z 00000KT 3500 BR OVC005 10/10 Q1027

IFR

10°C / 10°C

[Víc]
Vítr 340º 2kt
Viditelnost 3500m
Počasí Mist
Oblaky Vertical Visibility of 0ft.
Tlak 1027
Změna -
Nezpracované LGIO 190620Z 34002KT 3500 BR OVC005 10/10 Q1027

10°C / 10°C

[Víc]
Vítr variable 2kt
Viditelnost
Počasí -
Oblaky
Tlak 1026
Změna -
Nezpracované LGIO 190550Z AUTO VRB02KT //// // ////// 10/10 Q1026 RE//

10°C / 10°C

[Víc]
Vítr variable 2kt
Viditelnost
Počasí -
Oblaky
Tlak 1026
Změna -
Nezpracované LGIO 190520Z AUTO VRB02KT //// // ////// 10/10 Q1026 RE//

10°C / 10°C

[Víc]
Vítr variable 3kt
Viditelnost
Počasí -
Oblaky
Tlak 1026
Změna -
Nezpracované LGIO 190450Z AUTO VRB03KT //// // ////// 10/10 Q1026 RE//

10°C / 10°C

[Víc]
Vítr variable 3kt
Viditelnost
Počasí -
Oblaky
Tlak 1026
Změna -
Nezpracované LGIO 190420Z AUTO VRB03KT //// // ////// 10/10 Q1026 RE//

TAF pro Ioánnina (LGIO)

From till


From till Wind variable 3kt. Visibility 10km or more. Few Clouds 2500ft. Scattered Clouds 8000ft.
Becoming from till Wind variable 3kt. Visibility 10km or more. Few Clouds 2500ft.

Nezpracované: TAF LGIO 191400Z 1915/1924 VRB03KT 9999 FEW025 SCT080 BECMG 1916/1918 FEW025

Aktuální snímky ze satelitu a srážky pro Ioánnina, Řecko

Značka polohy je umístěna na Ioánnina. [Víc]

Satelitní snímek v reálném čase kombinuje viditelné světlo během dne s infračerveným zářením během noci. V noci není obraz tmavý, protože infračervené záření dokáže detekovat teplotní rozdíly. Nízká oblačnost a mlha se bohužel těžko odlišují od pozemních teplot, a proto mohou být během noci téměř neviditelné. Satelitní snímky z Meteosatu pro Evropu jsou aktualizovány v reálném čase každých 5 minut. Snímky z GOES-16/GOES-17 (Severní a Jižní Amerika) a Himawari (Asie) jsou aktualizovány) každých 10 minut.

Srážky jsou odhadované na základě radaru a satelitů. V noci jsou odhady srážek ze satelitů méně přesné než během dne. Oranžové křížky označují místa, kde byl zaznamenán blesk (za Evropa).

Copyright 2021 EUMETSAT / meteoblue. Údaje o blescích poskytuje nowcast.

Radar a krátkodobá předpověď srážek pro Ioánnina

Mrholení
Slabé
Moderate
Silné
Very Heavy
Hail

Značka lokality je umístněna na Ioánnina. Tato animace ukazuje srážky zaznamenané radarem za poslední hodinu a také 1h předpověď. Drizzle or light snow fall might be invisible for the radar. Precipitation intensity is colour coded, ranging from light blue to orange.